Date String (YYYY-MM-DD hh:mm:ss) UTC,Instrument flags,Ambient pressure (hPa),Sample flow (lpm),Bypass flow (lpm),Sample temperature (°C),Ambient temperature (°C),ASC tube jacket temperature (°C),LED temperature (°C),Box temperature (°C),Sample RH (%),Span deviation,Mass concentration (μg/m³),Mass concentration (μg/m³),Mass concentration (μg/m³)
DateTimeUTC,F1_M11,P_M11,Q1_M11,Q2_M11,T1_M11,T2_M11,T3_M11,T4_M11,T5_M11,U1_M11,ZSPAN_M11,X0_M11,X2_M11,X1_M11
2022-01-25 19:00:00,,0830.3,5.01,0.00,22.6,22.0,00.0,31.6,24.3,13.5,0000.0,0002.98,0002.45,0002.29
2022-01-25 19:01:00,,0830.2,5.00,0.00,22.6,22.0,00.0,31.6,24.3,13.5,0000.0,0002.92,0002.46,0002.30
2022-01-25 19:02:00,,0830.3,5.00,0.00,22.6,22.0,00.0,31.6,24.3,13.7,0000.0,0002.85,0002.45,0002.31
2022-01-25 19:03:00,,0830.2,4.99,0.00,22.6,22.0,00.0,31.6,24.3,13.7,0000.0,0002.93,0002.50,0002.34
2022-01-25 19:04:00,,0830.2,5.01,0.00,22.6,22.0,00.0,31.6,24.3,13.5,0000.0,0002.93,0002.50,0002.35
2022-01-25 19:05:00,,0830.2,5.00,0.00,22.6,21.9,00.0,31.6,24.3,13.5,0000.0,0002.93,0002.50,0002.34
2022-01-25 19:06:00,,0830.2,4.99,0.00,22.6,21.9,00.0,31.6,24.3,13.5,0000.0,0002.87,0002.52,0002.34
2022-01-25 19:07:00,,0830.2,5.01,0.00,22.6,21.9,00.0,31.6,24.3,13.5,0000.0,0002.92,0002.55,0002.37
2022-01-25 19:08:00,,0830.2,5.00,0.00,22.6,21.9,00.0,31.5,24.3,13.4,0000.0,0002.84,0002.56,0002.39
2022-01-25 19:09:00,,0830.2,5.00,0.00,22.6,21.9,00.0,31.5,24.3,13.3,0000.0,0002.86,0002.57,0002.40
2022-01-25 19:10:00,,0830.2,5.00,0.00,22.6,21.9,00.0,31.5,24.3,13.3,0000.0,0003.09,0002.59,0002.42
2022-01-25 19:11:00,,0830.2,5.00,0.00,22.6,21.9,00.0,31.5,24.3,13.2,0000.0,0003.36,0002.58,0002.42
2022-01-25 19:12:00,,0830.1,5.00,0.00,22.6,21.9,00.0,31.5,24.3,13.2,0000.0,0003.36,0002.59,0002.44
2022-01-25 19:13:00,,0830.2,5.00,0.00,22.6,22.0,00.0,31.5,24.3,13.3,0000.0,0003.41,0002.62,0002.46
2022-01-25 19:14:00,,0830.2,5.00,0.00,22.7,22.6,00.0,31.6,24.5,13.3,0000.0,0003.36,0002.60,0002.46
2022-01-25 19:15:00,,0830.2,4.99,0.00,22.8,23.2,00.0,31.6,24.7,13.2,0000.0,0003.41,0002.63,0002.48
2022-01-25 19:16:00,,0830.2,5.00,0.00,22.8,23.2,00.0,31.6,24.8,13.1,0000.0,0003.43,0002.66,0002.50
2022-01-25 19:17:00,,0830.2,5.00,0.00,22.9,23.0,00.0,31.6,24.8,13.1,0000.0,0003.44,0002.67,0002.52
2022-01-25 19:18:00,,0830.1,5.01,0.00,22.9,22.8,00.0,31.7,24.8,13.1,0000.0,0003.44,0002.69,0002.53
2022-01-25 19:19:00,,0830.1,4.99,0.00,22.9,22.7,00.0,31.7,24.7,13.2,0000.0,0003.50,0002.72,0002.54
2022-01-25 19:20:00,,0830.1,5.00,0.00,22.8,22.6,00.0,31.7,24.7,13.3,0000.0,0003.62,0002.78,0002.56
2022-01-25 19:21:00,,0830.1,5.01,0.00,22.8,22.5,00.0,31.7,24.6,13.2,0000.0,0003.44,0002.80,0002.57
2022-01-25 19:22:00,,0830.1,5.00,0.00,22.8,22.4,00.0,31.7,24.6,13.2,0000.0,0003.01,0002.82,0002.59
2022-01-25 19:23:00,,0830.0,5.00,0.00,22.8,22.3,00.0,31.7,24.5,13.1,0000.0,0003.05,0002.86,0002.62
2022-01-25 19:24:00,,0830.0,5.00,0.00,22.8,22.3,00.0,31.7,24.5,13.1,0000.0,0003.07,0002.89,0002.64
2022-01-25 19:25:00,,0830.1,4.98,0.00,22.7,22.2,00.0,31.7,24.4,13.2,0000.0,0003.11,0002.91,0002.66
2022-01-25 19:26:00,,0830.1,5.00,0.00,22.7,22.2,00.0,31.7,24.4,13.2,0000.0,0003.13,0002.94,0002.70
2022-01-25 19:27:00,,0830.1,5.00,0.00,22.7,22.1,00.0,31.7,24.4,13.3,0000.0,0003.13,0002.96,0002.72
2022-01-25 19:28:00,,0830.1,5.01,0.00,22.7,22.1,00.0,31.7,24.4,13.3,0000.0,0003.15,0002.99,0002.76
2022-01-25 19:29:00,,0830.0,5.01,0.00,22.7,22.1,00.0,31.7,24.4,13.3,0000.0,0003.26,0003.03,0002.79
2022-01-25 19:30:00,,0830.1,5.00,0.00,22.7,22.0,00.0,31.7,24.4,13.2,0000.0,0003.27,0003.04,0002.81
2022-01-25 19:31:00,,0830.1,5.00,0.00,22.6,22.0,00.0,31.6,24.3,13.2,0000.0,0003.17,0003.03,0002.83
2022-01-25 19:32:00,,0830.1,5.00,0.00,22.6,22.0,00.0,31.6,24.3,13.2,0000.0,0003.15,0003.05,0002.87
2022-01-25 19:33:00,,0830.1,4.99,0.00,22.6,22.0,00.0,31.6,24.3,13.1,0000.0,0003.14,0003.06,0002.89
2022-01-25 19:34:00,,0830.0,5.00,0.00,22.6,22.0,00.0,31.6,24.3,13.1,0000.0,0003.13,0003.07,0002.92
2022-01-25 19:35:00,,0830.0,5.01,0.00,22.6,22.0,00.0,31.6,24.3,13.2,0000.0,0003.14,0003.10,0002.95
2022-01-25 19:36:00,,0830.0,5.00,0.00,22.6,22.0,00.0,31.6,24.3,13.1,0000.0,0003.12,0003.12,0002.97
2022-01-25 19:37:00,,0830.0,5.00,0.00,22.5,21.9,00.0,31.6,24.2,13.0,0000.0,0003.66,0003.12,0002.96
2022-01-25 19:38:00,,0830.1,5.00,0.00,22.5,21.9,00.0,31.6,24.2,13.0,0000.0,0004.85,0003.13,0002.97
2022-01-25 19:39:00,,0830.1,5.00,0.00,22.5,21.9,00.0,31.5,24.2,13.1,0000.0,0004.82,0003.13,0002.97
2022-01-25 19:40:00,,0830.1,5.00,0.00,22.5,22.1,00.0,31.6,24.2,12.9,0000.0,0004.69,0003.12,0002.97
2022-01-25 19:41:00,,0830.1,5.00,0.00,22.6,22.8,00.0,31.6,24.5,12.9,0000.0,0004.65,0003.12,0002.98
2022-01-25 19:42:00,,0830.0,5.00,0.00,22.8,23.2,00.0,31.6,24.7,12.9,0000.0,0004.71,0003.13,0002.99
2022-01-25 19:43:00,,0830.0,5.02,0.00,22.8,23.1,00.0,31.6,24.7,12.9,0000.0,0004.73,0003.13,0002.99
2022-01-25 19:44:00,,0830.1,4.99,0.00,22.8,22.9,00.0,31.7,24.7,12.8,0000.0,0004.84,0003.15,0003.01
2022-01-25 19:45:00,,0830.0,5.01,0.00,22.8,22.8,00.0,31.7,24.7,12.9,0000.0,0004.90,0003.17,0003.01
2022-01-25 19:46:00,,0830.0,5.00,0.00,22.8,22.7,00.0,31.7,24.7,12.9,0000.0,0004.87,0003.16,0003.03
2022-01-25 19:47:00,,0830.0,5.00,0.00,22.8,22.6,00.0,31.7,24.6,12.9,0000.0,0004.87,0003.17,0003.05
2022-01-25 19:48:00,,0830.0,5.00,0.00,22.8,22.5,00.0,31.7,24.6,12.8,0000.0,0004.57,0003.17,0003.07
2022-01-25 19:49:00,,0830.0,5.00,0.00,22.8,22.4,00.0,31.7,24.5,12.8,0000.0,0003.26,0003.19,0003.10
2022-01-25 19:50:00,,0830.0,5.00,0.00,22.8,22.4,00.0,31.7,24.5,12.8,0000.0,0003.21,0003.19,0003.12
2022-01-25 19:51:00,,0830.0,5.00,0.00,22.8,22.3,00.0,31.7,24.5,12.9,0000.0,0003.21,0003.19,0003.12
2022-01-25 19:52:00,,0830.0,5.00,0.00,22.7,22.2,00.0,31.7,24.5,12.8,0000.0,0003.26,0003.20,0003.13
2022-01-25 19:53:00,,0830.0,5.02,0.00,22.7,22.2,00.0,31.7,24.5,12.8,0000.0,0003.27,0003.20,0003.13
2022-01-25 19:54:00,,0830.0,5.01,0.00,22.7,22.2,00.0,31.7,24.5,12.8,0000.0,0003.51,0003.20,0003.14
2022-01-25 19:55:00,,0830.0,5.00,0.00,22.7,22.2,00.0,31.7,24.5,12.9,0000.0,0003.44,0003.20,0003.14
2022-01-25 19:56:00,,0830.0,5.00,0.00,22.7,22.2,00.0,31.7,24.5,12.5,0000.0,0003.38,0003.18,0003.14
2022-01-25 19:57:00,,0830.0,5.00,0.00,22.7,22.1,00.0,31.7,24.4,12.3,0000.0,0003.41,0003.18,0003.14
2022-01-25 19:58:00,,0830.0,5.00,0.00,22.7,22.1,00.0,31.7,24.4,12.5,0000.0,0003.39,0003.17,0003.13
2022-01-25 19:59:00,,0830.0,5.01,0.00,22.7,22.1,00.0,31.7,24.5,12.6,0000.0,0003.37,0003.17,0003.12
